Lone Rock, WI

10:04 AM CST on February 20, 2018 (GMT -0600)
Tri-County Regional

Weather History for KLNR - May, 2013

Change the Weather History Date:

Sunday, May 26, 2013

  Actual Average Record
Temperature  
Mean Temperature 54 °F -  
Max Temperature 63 °F 68 °F 87 °F (2014)
Min Temperature 46 °F 47 °F 41 °F (2001)
Degree Days  
Heating Degree Days 11    
Growing Degree Days 4 (Base 50)    
Moisture  
Dew Point 46 °F    
Average Humidity 74    
Maximum Humidity 87    
Minimum Humidity 46    
Precipitation  
Precipitation 0.09 in - - ()
Sea Level Pressure  
Sea Level Pressure 30.21 in    
Wind  
Wind Speed 5 mph (ESE)    
Max Wind Speed 14 mph    
Max Gust Speed -    
Visibility 9 miles    
Events Rain    
Averages and records for this station are not official NWS values.
T = Trace of Precipitation, MM = Missing Value Source: NWS Daily Summary

Daily Weather History Graph

Daily Weather History Graph

Search for Another Location

Airport or City:

Trip Planner

Search our weather history database for the weather conditions in past years. The results will help you decide how hot, cold, wet, or windy it might be!

Date:

Astronomy

May. 26, 2013 Rise Set
Actual Time 5:27 AM CDT 8:29 PM CDT
Civil Twilight 4:53 AM CDT 9:03 PM CDT
Nautical Twilight 4:09 AM CDT 9:46 PM CDT
Astronomical Twilight 3:18 AM CDT 10:38 PM CDT
Moon 10:15 PM CDT (5/26) 6:56 AM CDT (5/26)
Length of Visible Light 16h 10m
Length of Day
15h 02m
Waning Gibbous, 96% of the Moon is Illuminated
May 26
Waning Gibbous
May 31
Last Quarter
Jun 8
New
Jun 16
First Quarter
Jun 23
Full

Hourly Weather History & Observations

Time (CDT) Temp. Windchill Dew Point Humidity Pressure Visibility Wind Dir Wind Speed Gust Speed Precip Events Conditions
12:56 AM 48.0 °F - 44.1 °F 86% 30.29 in 10.0 mi Calm Calm - N/A   Mostly Cloudy
1:56 AM 48.0 °F - 41.0 °F 77% 30.27 in 10.0 mi ESE 3.5 mph - N/A   Clear
2:56 AM 46.0 °F - 42.1 °F 86% 30.25 in 10.0 mi Calm Calm - N/A   Clear
3:56 AM 46.0 °F 42.5 °F 42.1 °F 86% 30.24 in 10.0 mi ESE 6.9 mph - N/A   Partly Cloudy
4:56 AM 46.9 °F - 42.1 °F 83% 30.24 in 10.0 mi SE 4.6 mph - N/A   Overcast
5:56 AM 46.9 °F - 41.0 °F 80% 30.26 in 10.0 mi East 5.8 mph - N/A   Scattered Clouds
6:56 AM 48.9 °F - 39.9 °F 71% 30.27 in 10.0 mi East 6.9 mph - N/A   Partly Cloudy
7:56 AM 51.1 °F - 39.9 °F 66% 30.27 in 10.0 mi East 8.1 mph - N/A   Scattered Clouds
8:56 AM 54.0 °F - 39.9 °F 59% 30.26 in 10.0 mi East 10.4 mph - N/A   Clear
9:56 AM 57.9 °F - 41.0 °F 53% 30.26 in 10.0 mi East 9.2 mph - N/A   Scattered Clouds
10:56 AM 62.1 °F - 41.0 °F 46% 30.24 in 10.0 mi ESE 10.4 mph - N/A   Clear
11:56 AM 62.1 °F - 41.0 °F 46% 30.25 in 10.0 mi SSE 13.8 mph - N/A   Mostly Cloudy
12:56 PM 59.0 °F - 46.0 °F 62% 30.23 in 2.0 mi Variable 4.6 mph - 0.03 in Rain Rain
1:09 PM 59.0 °F - 46.4 °F 63% 30.23 in 7.0 mi SE 5.8 mph - 0.01 in Rain Light Rain
1:56 PM 57.9 °F - 48.9 °F 72% 30.20 in 6.0 mi SE 3.5 mph - 0.03 in Rain Light Rain
2:56 PM 57.0 °F - 52.0 °F 83% 30.19 in 8.0 mi SSE 4.6 mph - 0.03 in Rain Light Rain
3:56 PM 55.9 °F - 51.1 °F 84% 30.20 in 10.0 mi Calm Calm - 0.00 in Rain Light Rain
4:56 PM 57.0 °F - 51.1 °F 81% 30.19 in 10.0 mi East 3.5 mph - 0.00 in   Overcast
5:56 PM 57.0 °F - 52.0 °F 83% 30.17 in 9.0 mi ENE 5.8 mph - N/A   Overcast
6:56 PM 57.0 °F - 53.1 °F 87% 30.14 in 8.0 mi East 9.2 mph - N/A   Overcast
7:56 PM 57.0 °F - 51.1 °F 81% 30.13 in 9.0 mi East 10.4 mph - N/A   Overcast
8:56 PM 57.0 °F - 51.1 °F 81% 30.14 in 9.0 mi East 8.1 mph - N/A   Overcast
9:56 PM 57.0 °F - 50.0 °F 77% 30.13 in 8.0 mi East 10.4 mph - N/A   Overcast
10:56 PM 55.9 °F - 48.9 °F 77% 30.14 in 8.0 mi East 9.2 mph - N/A   Overcast
11:56 PM 55.9 °F - 46.9 °F 72% 30.12 in 10.0 mi East 12.7 mph - N/A   Overcast